When you browse on this site, cookies collect data to enhance your experience and personalize the content and advertising you see.
Visit our Privacy Policy to learn more. By continuing to use the site, you agree to this use of cookies and data.
  • In Österreich
  • Länderverzeichnis
  • Für 7 Tage
  • Wassertemperatur
  • Wetterkarte
  • News
  • Widgets
  • user-avatar
    Anmelden

    Stündliche Wetter Troy

    Heute, 15 September, Sonntag

    Zeit Temperatur Niederschläge Wind Luftdruck Luftfeuchtigkeit
    00:00 +19°C° 0 mm 1 m/S 745 mmHg 73%
    01:00 +19°C° 0 mm 1 m/S 745 mmHg 73%
    02:00 +19°C° 0 mm 1 m/S 745 mmHg 73%
    03:00 +19°C° 0 mm 1 m/S 744 mmHg 74%
    04:00 +19°C° 0.1 mm 1 m/S 744 mmHg 78%
    05:00 +18°C° 0.1 mm 2 m/S 744 mmHg 81%
    06:00 +18°C° 0.1 mm 2 m/S 744 mmHg 85%
    07:00 +19°C° 0.1 mm 2 m/S 744 mmHg 83%
    08:00 +20°C° 0.1 mm 3 m/S 744 mmHg 80%
    09:00 +21°C° 0.1 mm 3 m/S 744 mmHg 77%
    10:00 +21°C° 0.4 mm 3 m/S 744 mmHg 76%
    11:00 +21°C° 0.4 mm 3 m/S 743 mmHg 75%
    12:00 +21°C° 0.4 mm 3 m/S 743 mmHg 74%
    13:00 +24°C° 0.1 mm 3 m/S 743 mmHg 70%
    14:00 +25°C° 0.1 mm 4 m/S 742 mmHg 65%
    15:00 +27°C° 0.1 mm 4 m/S 742 mmHg 61%
    16:00 +26°C° 0 mm 3 m/S 742 mmHg 65%
    17:00 +25°C° 0 mm 2 m/S 742 mmHg 70%
    18:00 +24°C° 0 mm 2 m/S 741 mmHg 75%
    19:00 +24°C° 0.1 mm 2 m/S 742 mmHg 78%
    20:00 +23°C° 0.1 mm 2 m/S 742 mmHg 82%
    21:00 +23°C° 0.1 mm 2 m/S 742 mmHg 85%
    22:00 +23°C° 0 mm 2 m/S 742 mmHg 87%
    23:00 +22°C° 0 mm 1 m/S 741 mmHg 88%

    Morgen, 16 September, Montag

    Zeit Temperatur Niederschläge Wind Luftdruck Luftfeuchtigkeit
    00:00 +22°C° 0 mm 1 m/S 741 mmHg 90%
    01:00 +22°C° 0.1 mm 1 m/S 741 mmHg 91%
    02:00 +22°C° 0.1 mm 1 m/S 741 mmHg 92%
    03:00 +22°C° 0.1 mm 1 m/S 741 mmHg 92%
    04:00 +22°C° 0.1 mm 1 m/S 741 mmHg 92%
    05:00 +20°C° 0.1 mm 2 m/S 742 mmHg 92%
    06:00 +20°C° 0.1 mm 2 m/S 742 mmHg 92%
    07:00 +21°C° 0 mm 2 m/S 742 mmHg 87%
    08:00 +24°C° 0 mm 3 m/S 743 mmHg 81%
    09:00 +25°C° 0 mm 3 m/S 743 mmHg 76%
    10:00 +26°C° 0 mm 3 m/S 743 mmHg 71%
    11:00 +26°C° 0 mm 3 m/S 743 mmHg 67%
    12:00 +27°C° 0 mm 3 m/S 743 mmHg 63%
    13:00 +27°C° 0 mm 3 m/S 743 mmHg 64%
    14:00 +27°C° 0 mm 3 m/S 743 mmHg 65%
    15:00 +27°C° 0 mm 4 m/S 743 mmHg 65%
    16:00 +25°C° 0 mm 4 m/S 743 mmHg 71%
    17:00 +24°C° 0 mm 3 m/S 743 mmHg 76%
    18:00 +22°C° 0 mm 3 m/S 744 mmHg 82%
    19:00 +21°C° 0 mm 3 m/S 744 mmHg 83%
    20:00 +20°C° 0 mm 3 m/S 744 mmHg 85%
    21:00 +20°C° 0 mm 3 m/S 745 mmHg 86%
    22:00 +19°C° 0 mm 3 m/S 745 mmHg 86%
    23:00 +19°C° 0 mm 3 m/S 745 mmHg 86%

    übermorgen, 17 September, Dienstag

    Zeit Temperatur Niederschläge Wind Luftdruck Luftfeuchtigkeit
    00:00 +19°C° 0 mm 2 m/S 745 mmHg 85%
    01:00 +18°C° 0 mm 2 m/S 745 mmHg 82%
    02:00 +17°C° 0 mm 2 m/S 745 mmHg 79%
    03:00 +17°C° 0 mm 2 m/S 745 mmHg 76%
    04:00 +17°C° 0 mm 2 m/S 745 mmHg 75%
    05:00 +16°C° 0 mm 2 m/S 745 mmHg 75%
    06:00 +16°C° 0 mm 2 m/S 746 mmHg 75%
    07:00 +18°C° 0 mm 3 m/S 746 mmHg 70%
    08:00 +19°C° 0 mm 3 m/S 746 mmHg 65%
    09:00 +21°C° 0 mm 3 m/S 746 mmHg 60%
    10:00 +22°C° 0 mm 3 m/S 746 mmHg 56%
    11:00 +24°C° 0 mm 3 m/S 746 mmHg 52%
    12:00 +25°C° 0 mm 3 m/S 746 mmHg 48%
    13:00 +25°C° 0 mm 3 m/S 746 mmHg 48%
    14:00 +25°C° 0 mm 3 m/S 746 mmHg 48%
    15:00 +25°C° 0 mm 3 m/S 745 mmHg 48%
    16:00 +24°C° 0 mm 3 m/S 745 mmHg 51%
    17:00 +22°C° 0 mm 3 m/S 745 mmHg 54%
    18:00 +20°C° 0 mm 3 m/S 745 mmHg 57%
    19:00 +20°C° 0 mm 2 m/S 745 mmHg 59%
    20:00 +19°C° 0 mm 2 m/S 745 mmHg 61%
    21:00 +19°C° 0 mm 2 m/S 746 mmHg 63%
    22:00 +18°C° 0 mm 2 m/S 745 mmHg 66%
    23:00 +18°C° 0 mm 2 m/S 745 mmHg 69%

    18 September, Mittwoch

    Zeit Temperatur Niederschläge Wind Luftdruck Luftfeuchtigkeit
    00:00 +17°C° 0 mm 2 m/S 745 mmHg 73%
    01:00 +17°C° 0 mm 2 m/S 745 mmHg 75%
    02:00 +17°C° 0 mm 2 m/S 745 mmHg 77%
    03:00 +17°C° 0 mm 2 m/S 745 mmHg 79%
    04:00 +17°C° 0 mm 2 m/S 745 mmHg 79%
    05:00 +17°C° 0 mm 2 m/S 745 mmHg 80%
    06:00 +17°C° 0 mm 2 m/S 745 mmHg 81%
    07:00 +18°C° 0 mm 3 m/S 745 mmHg 73%
    08:00 +20°C° 0 mm 3 m/S 746 mmHg 66%
    09:00 +22°C° 0 mm 3 m/S 746 mmHg 58%
    10:00 +24°C° 0 mm 3 m/S 746 mmHg 53%
    11:00 +25°C° 0 mm 3 m/S 746 mmHg 48%
    12:00 +27°C° 0 mm 3 m/S 746 mmHg 44%
    13:00 +26°C° 0 mm 3 m/S 745 mmHg 44%
    14:00 +26°C° 0 mm 3 m/S 745 mmHg 43%
    15:00 +26°C° 0 mm 4 m/S 745 mmHg 43%
    16:00 +25°C° 0 mm 3 m/S 745 mmHg 48%
    17:00 +22°C° 0 mm 3 m/S 745 mmHg 52%
    18:00 +21°C° 0 mm 3 m/S 745 mmHg 56%
    19:00 +20°C° 0 mm 3 m/S 745 mmHg 60%
    20:00 +20°C° 0 mm 3 m/S 745 mmHg 64%
    21:00 +19°C° 0 mm 3 m/S 745 mmHg 67%
    22:00 +19°C° 0 mm 3 m/S 745 mmHg 70%
    23:00 +19°C° 0 mm 3 m/S 745 mmHg 73%

    19 September, Donnerstag

    Zeit Temperatur Niederschläge Wind Luftdruck Luftfeuchtigkeit
    00:00 +19°C° 0 mm 3 m/S 745 mmHg 76%
    01:00 +19°C° 0 mm 3 m/S 745 mmHg 74%
    02:00 +19°C° 0 mm 3 m/S 745 mmHg 73%
    03:00 +19°C° 0 mm 3 m/S 744 mmHg 71%
    04:00 +19°C° 0 mm 3 m/S 744 mmHg 72%
    05:00 +19°C° 0 mm 3 m/S 744 mmHg 73%
    06:00 +18°C° 0 mm 2 m/S 744 mmHg 73%
    07:00 +20°C° 0 mm 2 m/S 745 mmHg 68%
    08:00 +22°C° 0 mm 3 m/S 745 mmHg 63%
    09:00 +24°C° 0 mm 3 m/S 745 mmHg 58%
    10:00 +26°C° 0 mm 3 m/S 745 mmHg 56%
    11:00 +27°C° 0 mm 4 m/S 745 mmHg 54%
    12:00 +29°C° 0 mm 4 m/S 744 mmHg 52%
    13:00 +29°C° 0 mm 4 m/S 744 mmHg 54%
    14:00 +29°C° 0 mm 4 m/S 744 mmHg 56%
    15:00 +29°C° 0 mm 4 m/S 743 mmHg 58%
    16:00 +28°C° 0 mm 3 m/S 744 mmHg 63%
    17:00 +27°C° 0 mm 3 m/S 744 mmHg 69%
    18:00 +26°C° 0 mm 2 m/S 744 mmHg 74%
    19:00 +25°C° 0 mm 2 m/S 744 mmHg 77%
    20:00 +25°C° 0 mm 2 m/S 744 mmHg 80%
    21:00 +24°C° 0 mm 2 m/S 744 mmHg 83%
    22:00 +24°C° 0 mm 2 m/S 744 mmHg 84%
    23:00 +24°C° 0 mm 2 m/S 744 mmHg 85%

    20 September, Freitag

    Zeit Temperatur Niederschläge Wind Luftdruck Luftfeuchtigkeit
    00:00 +23°C° 0 mm 2 m/S 744 mmHg 87%
    01:00 +23°C° 0 mm 2 m/S 744 mmHg 87%
    02:00 +23°C° 0 mm 2 m/S 744 mmHg 88%
    03:00 +21°C° 0 mm 2 m/S 745 mmHg 89%
    04:00 +22°C° 0 mm 1 m/S 745 mmHg 89%
    05:00 +22°C° 0 mm 1 m/S 745 mmHg 89%
    06:00 +22°C° 0 mm 1 m/S 745 mmHg 90%
    07:00 +24°C° 0 mm 2 m/S 745 mmHg 82%
    08:00 +25°C° 0 mm 2 m/S 746 mmHg 75%
    09:00 +27°C° 0 mm 2 m/S 746 mmHg 68%
    10:00 +28°C° 0 mm 2 m/S 746 mmHg 64%
    11:00 +29°C° 0 mm 3 m/S 745 mmHg 59%
    12:00 +30°C° 0 mm 3 m/S 745 mmHg 54%
    13:00 +30°C° 0 mm 3 m/S 745 mmHg 55%
    14:00 +30°C° 0 mm 3 m/S 744 mmHg 55%
    15:00 +30°C° 0 mm 3 m/S 744 mmHg 56%
    16:00 +29°C° 0.1 mm 3 m/S 744 mmHg 60%
    17:00 +28°C° 0.1 mm 3 m/S 744 mmHg 64%
    18:00 +27°C° 0.1 mm 3 m/S 744 mmHg 69%
    19:00 +27°C° 0 mm 2 m/S 744 mmHg 72%
    20:00 +26°C° 0 mm 2 m/S 744 mmHg 75%
    21:00 +26°C° 0 mm 2 m/S 744 mmHg 78%
    22:00 +25°C° 0 mm 2 m/S 744 mmHg 80%
    23:00 +25°C° 0 mm 3 m/S 744 mmHg 82%
    Mehr zeigen